Location: Spruce Knob
(38.6995°N, 79.5330°W)
Time: 19:10:13
(UTC-04:00)

Transit 2A - Pass Details

Date: 17 August 2022
Orbit: 601 x 956 km, 66.7° (Epoch: 27 September)

Event Time Altitude Azimuth Distance (km) Brightness Sun altitude
Rises 21:48:08 0° 308° (NW) 2,887 10.7 -18.1°
Reaches altitude 10° 21:51:29 10° 281° (W) 2,018 9.2 -18.6°
Maximum altitude 21:53:33 13° 253° (WSW) 1,850 8.5 -18.9°
Drops below altitude 10° 21:55:42 10° 226° (SW) 2,084 8.4 -19.3°
Sets 21:59:17 0° 199° (SSW) 3,070 9.0 -19.8°
Enters shadow 21:59:22 - 199° (SSW) 3,096 9.0 -19.8°
